Location: Dvur Kralove nad Labem
(50.4330°N, 15.8170°E)
Time: 17:17:05
(UTC+01:00)

ISS - Pass Details

Date: 09 November 2018
Orbit: 401 x 408 km, 51.6° (Epoch: 20 November)

Event Time Altitude Azimuth Distance (km) Brightness Sun altitude
Exits shadow 05:15:26 50° 273° (W) 528 -3.7 -16.9°
Maximum altitude 05:16:11 78° 199° (SSW) 418 -3.9 -16.7°
Drops below altitude 10° 05:19:28 10° 112° (ESE) 1,463 0.2 -16.2°
Sets 05:21:33 0° 111° (ESE) 2,323 1.6 -15.9°
